#timestamp,LO_Frequency,Hit,StdDev 
1627459215.8,286047000.2,N
1627459235.7,286046999.7,N
1627459255.5,286047002.4,N
1627459275.3,286046999.8,N
1627459295.2,286046998.2,N
1627459315.0,286046996.5,N
1627459315.9,286046996.5,N
1627459335.7,286046996.5,N
1627459355.6,286046999.2,N
1627459375.4,286046997.1,N
1627459395.3,286046996.8,N
1627459415.1,286046996.7,N
1627459416.0,286046996.7,N
1627459435.8,286046997.8,N
1627459455.7,286046997.3,N
1627459475.5,286046998.8,N
1627459495.3,286046998.2,N
1627459515.2,286047000.6,N
1627459535.0,286047000.2,N
1627459535.9,286047000.2,N
1627459555.8,286047002.6,N
1627459575.6,286047002.6,N
1627459595.4,286047002.6,N
1627459615.3,286047004.3,N
1627459635.1,286047001.7,N
1627459655.8,286047004.4,N
1627459675.7,286047001.3,N
1627459695.5,286047001.3,N
1627459715.4,286047004.3,N
1627459735.2,286047001.4,N
1627459755.0,286047004.4,N
1627459755.9,286047004.4,N
1627459775.8,286047001.6,N
1627459795.6,286047002.7,N
1627459815.5,286047000.2,N
1627459835.3,286046998.3,N
1627459855.1,286047000.9,N
1627459875.9,286046998.3,N
1627459895.7,286046996.9,N
1627459915.6,286046998.8,N
1627459935.4,286046998.3,N
1627459955.2,286047000.5,N
1627459975.1,286047000.6,N
1627459976.0,286047000.6,N
1627459995.8,286046999.9,N
1627460015.7,286047000.0,N
1627460035.5,286047002.3,N
1627460055.3,286047002.7,N
1627460075.2,286047000.8,N
1627460095.0,286047001.0,N
1627460095.9,286047001.0,N
1627460115.8,286046999.8,N
1627460135.6,286047002.5,N
1627460155.4,286047000.3,N
1627460175.3,286046998.5,N
1627460195.1,286046998.5,N
1627460215.8,286046998.4,N
1627460235.7,286046999.0,N
1627460255.5,286047000.8,N
1627460275.4,286046998.6,N
1627460295.2,286046998.6,N
1627460315.0,286046998.2,N
1627460315.9,286046998.2,N
1627460335.8,286047000.2,N
1627460355.6,286047001.2,N
1627460375.5,286047000.3,N
1627460395.3,286046999.7,N
1627460415.1,286047000.4,N
1627460435.9,286047000.0,N
1627460455.7,286046999.9,N
1627460475.6,286046998.9,N
1627460495.4,286046996.9,N
1627460515.2,286046999.6,N
1627460535.1,286046998.5,N
1627460536.0,286046998.5,N
1627460555.8,286047000.8,N
1627460575.6,286046999.4,N
1627460595.5,286046999.2,N
1627460615.3,286046998.7,N
1627460635.2,286046999.3,N
1627460655.9,286047001.0,N
1627460675.7,286047001.0,N
1627460695.6,286047001.1,N
1627460715.4,286046999.9,N
1627460735.2,286047002.5,N
1627460755.1,286047002.4,N
1627460756.0,286047002.4,N
1627460775.8,286047002.0,N
1627460795.7,286047002.8,N
1627460815.5,286047002.6,N
1627460835.3,286047001.5,N
1627460855.2,286047003.9,N
1627460875.9,286047004.1,N
1627460895.7,286047003.8,N
1627460915.6,286047003.7,N
1627460935.4,286047003.3,N
1627460955.2,286047003.3,N
1627460975.1,286047003.0,N
1627460976.0,286047003.0,N
1627460995.8,286047003.4,N
1627461015.7,286047003.5,N
1627461035.5,286047003.2,N
1627461055.6,286047004.2,N
1627461075.5,286047003.8,N
1627461095.3,286047004.2,N
1627461115.1,286047001.3,N
1627461135.9,286047004.4,N
1627461155.7,286047002.8,N
1627461175.5,286047001.0,N
1627461195.4,286046996.5,N
1627461215.2,286047000.7,N
1627461235.1,286046998.4,N
1627461236.0,286046998.4,N
1627461255.8,286046999.6,N
1627461275.6,286046999.4,N
1627461295.5,286046999.3,N
1627461315.3,286046999.3,N
1627461335.1,286046999.1,N
1627461355.9,286046999.2,N
1627461375.7,286046999.0,N
1627461395.6,286046998.9,N
1627461415.4,286047001.0,N
1627461435.2,286046998.5,N
1627461455.1,286046998.6,N
1627461456.0,286046998.6,N
1627461475.8,286046998.9,N
1627461495.7,286046998.7,N
1627461515.5,286046999.4,N
1627461535.3,286046999.5,N
1627461555.2,286046999.1,N
1627461575.0,286046999.1,N
1627461575.9,286046999.1,N
1627461595.8,286046997.0,N
1627461615.6,286046996.6,N
1627461635.4,286046996.8,N
1627461655.3,286046996.7,N
1627461675.1,286046997.4,N
1627461695.8,286046998.9,N
1627461715.7,286046998.5,N
1627461735.5,286047000.8,N
1627461755.4,286047000.8,N
1627461775.2,286046999.1,N
1627461795.0,286046999.5,N
1627461795.9,286046999.5,N
1627461815.8,286046996.5,Y
1627461835.6,286046998.1,P
1627461855.5,286046998.3,P
1627461875.3,286047001.0,N
1627461895.1,286047000.2,N
1627461915.9,286047000.3,N
1627461935.7,286047000.1,N
1627461955.5,286047000.8,N
1627461975.4,286047000.0,N
1627461995.2,286047001.0,N
1627462015.1,286046998.5,N
1627462016.0,286046998.5,N
1627462035.8,286046998.6,N
1627462055.6,286046999.1,N
1627462075.5,286046998.6,N
1627462095.3,286046996.5,Y
1627462115.1,286046998.9,P
1627462135.9,286046999.3,N
1627462155.7,286046999.5,N
1627462175.6,286046998.8,Y
1627462195.4,286047001.1,P
1627462215.2,286046998.4,N
1627462235.1,286046998.9,N
1627462236.0,286046998.9,N
1627462255.8,286046998.7,N
1627462275.7,286046998.0,N
1627462295.5,286046997.9,N
1627462315.3,286046994.9,Y
1627462335.2,286046996.8,P
1627462355.0,286046998.6,N
1627462355.9,286046998.6,N
1627462375.7,286047000.9,N
1627462395.6,286047000.1,N
1627462415.4,286047001.2,N
1627462435.3,286047001.0,N
1627462455.1,286047000.6,N
1627462456.0,286047000.6,N
1627462475.8,286047001.0,N
1627462495.7,286046999.8,N
1627462515.5,286046999.8,N
1627462535.4,286047002.7,N
1627462555.2,286046998.5,N
1627462575.0,286046996.6,N
1627462575.9,286046996.6,N
1627462595.8,286046998.2,N
1627462615.6,286046999.3,N
1627462635.4,286046998.9,N
1627462655.3,286046999.5,N
1627462675.1,286046998.1,N
1627462695.9,286047000.5,N
1627462715.7,286047002.8,N
1627462735.5,286047004.3,N
1627462755.4,286047003.5,N
1627462775.2,286047003.7,N
1627462795.0,286047003.8,N
1627462795.9,286047003.8,N
